This demonstration page uses our WeatherBlox Daily Observations layout. Learn more.

Left ArrowRight Arrow

36.17497, -115.13722

Hourly Observations for January 18, 2019

Temp ( °F °C ) Dew Point ( °F °C ) Humidity (%) Winds ( mph kmh ) Pressure ( in mb ) Visibility ( mi km ) Precip ( " mm )
12:53 am 00:53 Clear 50 10 43 6.1 77 77 W 3 6 30.04 1017 10 16.0934 0 0
1:53 am 01:53 Clear 50 10 43 6.1 77 77 ENE 6 9 30.07 1018 10 16.0934 0 0
2:53 am 02:53 Clear 49 9.4 44 6.7 83 83 NE 7 11 30.09 1019 10 16.0934 0 0
3:53 am 03:53 Clear 47 8.3 43 6.1 86 86 N 3 6 30.11 1020 10 16.0934 0 0
4:53 am 04:53 Clear 45 7.2 41 5 86 86 WNW 8 13 30.14 1021 10 16.0934 0 0
5:53 am 05:53 Clear 45 7.2 40 4.4 83 83 W 6 9 30.17 1022 10 16.0934 0 0
6:53 am 06:53 Sunny 47 8.3 39 3.9 74 74 N 8 13 30.19 1022 10 16.0934 0 0
7:53 am 07:53 Sunny 50 10 40 4.4 68 68 NNW 13 20 30.21 1023 10 16.0934 0 0
8:53 am 08:53 Sunny 54 12.2 40 4.4 59 59 NNE 10 17 30.24 1024 10 16.0934 0 0
9:53 am 09:53 Sunny 55 12.8 42 5.6 62 62 E 8 13 30.29 1026 10 16.0934 0 0
10:53 am 10:53 Sunny 59 15 38 3.3 46 46 E 7 11 30.29 1026 10 16.0934 0 0
11:53 am 11:53 Sunny 59 15 35 1.7 41 41 E 12 19 30.27 1025 10 16.0934 0 0
12:53 pm 12:53 Sunny 59 15 34 1.1 39 39 ESE 9 15 30.26 1025 10 16.0934 0 0
1:53 pm 13:53 Sunny 60 15.6 33 0.6 36 36 ESE 5 7 30.26 1025 10 16.0934 0 0
2:53 pm 14:53 Sunny 60 15.6 33 0.6 36 36 SE 12 19 30.27 1025 10 16.0934 0 0
3:53 pm 15:53 Sunny 59 15 32 0 36 36 ESE 8 13 30.29 1026 10 16.0934 0 0
4:53 pm 16:53 Clear 57 13.9 33 0.6 41 41 SSE 8 13 30.32 1027 10 16.0934 0 0
5:53 pm 17:53 Clear 56 13.3 30 -1.1 37 37 S 3 6 30.33 1027 10 16.0934 0 0
6:53 pm 18:53 Clear 54 12.2 33 0.6 45 45 W 5 7 30.35 1028 10 16.0934 0 0
7:53 pm 19:53 Clear 53 11.7 35 1.7 51 51 W 6 9 30.36 1028 10 16.0934 0 0
8:53 pm 20:53 Clear 49 9.4 37 2.8 64 64 N 5 7 30.38 1029 10 16.0934 0 0
9:53 pm 21:53 Clear 50 10 35 1.7 57 57 NNW 9 15 30.39 1029 10 16.0934 0 0
10:53 pm 22:53 Clear 50 10 34 1.1 54 54 NE 7 11 30.41 1030 10 16.0934 0 0
11:53 pm 23:53 Clear 48 8.9 34 1.1 58 58 WSW 3 6 30.4 1030 10 16.0934 0 0

Powered by AerisWeather